User: anonymous
Location: Unspecified
(0.0000°N, 0.0000°E)
Time: 12:40:17
(UTC+00:00)
Language:

Explorer 7 - Orbit

View from above orbital plane
View from above orbital plane
View from above satellite
View from above satellite

Ground track
Ground track

The orbit data is extracted from the following two-line orbital elements,

1 00022U 59009A   14230.93634009  .00001002  00000-0  10840-3 0  9934
2 00022 050.2862 351.6618 0153904 060.7594 300.8641 14.89547801907007
Epoch (UTC): 18 August 2014 22:28:19
Eccentricity: 0.0153904
inclination: 50.2862°
perigee height: 492 km
apogee height: 707 km
right ascension of ascending node: 351.6618°
argument of perigee: 60.7594°
revolutions per day: 14.89547801
mean anomaly at epoch: 300.8641°
orbit number at epoch: 90700

The dashed part of the orbit path shows where the satellite is in the earth's shadow,  

DLR